This demonstration page uses our WeatherBlox Daily Observations layout. Learn more.

Hourly Observations for March 11, 2018

Temp ( °F °C ) Dew Point ( °F °C ) Humidity (%) Winds ( mph kmh ) Pressure ( in mb ) Visibility ( mi km ) Precip ( " mm )
12:15 am 00:15 Cloudy 32 -0.2 24 -4.6 73 73 N 15 24 30.24 1024 10 16.0934 0 0
12:35 am 00:35 Cloudy 31 -0.6 24 -4.6 75 75 N 13 20 30.24 1024 10 16.0934 0 0
12:50 am 00:50 Cloudy 31 -0.5 24 -4.5 75 75 N 16 26 30.24 1024 10 16.0934 0 0
1:10 am 01:10 Cloudy 31 -0.6 24 -4.4 76 76 N 17 28 30.24 1024 10 16.0934 0 0
1:35 am 01:35 Partly Cloudy 28 -2 22 -5.5 77 77 NNW 14 22 30.27 1025 10 16.0934 0 0
1:50 am 01:50 Clear 28 -2 22 -5.8 76 76 NNW 18 30 30.27 1025 10 16.0934 0 0
3:15 am 03:15 Clear 28 -2.4 21 -6.1 76 76 NNW 16 26 30.3 1026 10 16.0934 0 0
3:35 am 03:35 Clear 26 -3.1 21 -6.2 79 79 NNW 10 17 30.3 1026 10 16.0934 0 0
3:50 am 03:50 Clear 26 -3.1 21 -6.1 80 80 NNW 13 20 30.3 1026 10 16.0934 0 0
4:15 am 04:15 Cloudy 28 -2 22 -5.3 78 78 NNW 15 24 30.27 1025 10 16.0934 0 0
4:35 am 04:35 Cloudy 29 -1.6 22 -5.5 75 75 N 18 30 30.27 1025 10 16.0934 0 0
4:50 am 04:50 Cloudy 29 -1.5 22 -5.4 75 75 N 15 24 30.27 1025 10 16.0934 0 0
5:15 am 05:15 Cloudy 29 -1.5 22 -5.3 76 76 NNW 14 22 30.3 1026 10 16.0934 0 0
5:35 am 05:35 Cloudy 29 -1.5 22 -5.3 76 76 NNW 16 26 30.3 1026 10 16.0934 0 0
5:50 am 05:50 Cloudy 29 -1.5 23 -5.1 77 77 N 17 28 30.3 1026 10 16.0934 0 0
6:15 am 06:15 Cloudy 29 -1.5 23 -4.9 78 78 NNW 14 22 30.3 1026 10 16.0934 0 0
6:35 am 06:35 Cloudy 29 -1.5 24 -4.7 79 79 N 18 30 30.3 1026 10 16.0934 0 0
6:50 am 06:50 Cloudy 29 -1.5 24 -4.5 80 80 NNW 15 24 30.36 1028 10 16.0934 0 0
7:15 am 07:15 Cloudy 29 -1.4 24 -4.5 80 80 NNW 16 26 30.33 1027 10 16.0934 0 0
7:35 am 07:35 Cloudy 29 -1.4 24 -4.5 80 80 N 16 26 30.33 1027 10 16.0934 0 0
7:50 am 07:50 Cloudy 29 -1.4 24 -4.5 80 80 N 15 24 30.33 1027 10 16.0934 0 0
8:15 am 08:15 Cloudy 30 -1.3 24 -4.5 79 79 N 16 26 30.39 1029 10 16.0934 0 0
8:35 am 08:35 Cloudy 30 -1.3 24 -4.3 80 80 N 16 26 30.39 1029 10 16.0934 0 0
8:50 am 08:50 Cloudy 30 -1.2 24 -4.2 80 80 N 16 26 30.36 1028 10 16.0934 0 0
9:20 am 09:20 Cloudy 29 -1.5 25 -4 83 83 N 18 30 30.42 1030 10 16.0934 0 0
9:35 am 09:35 Cloudy 29 -1.5 25 -4 83 83 N 16 26 30.42 1030 10 16.0934 0 0
9:50 am 09:50 Cloudy 29 -1.5 25 -3.8 85 85 N 15 24 30.42 1030 10 16.0934 0 0
10:15 am 10:15 Cloudy 29 -1.4 26 -3.6 85 85 N 14 22 30.42 1030 10 16.0934 0 0
10:35 am 10:35 Cloudy 30 -1.2 26 -3.5 85 85 N 15 24 30.45 1031 10 16.0934 0 0
10:50 am 10:50 Cloudy 30 -1 26 -3.5 83 83 N 17 28 30.45 1031 10 16.0934 0 0
11:15 am 11:15 Cloudy 30 -0.9 26 -3.6 82 82 N 15 24 30.45 1031 10 16.0934 0 0
11:35 am 11:35 Cloudy 31 -0.6 26 -3.6 80 80 N 21 33 30.42 1030 10 16.0934 0 0
11:50 am 11:50 Cloudy 31 -0.5 26 -3.5 80 80 N 15 24 30.42 1030 10 16.0934 0 0
12:15 pm 12:15 Cloudy 32 -0.2 26 -3.5 79 79 N 16 26 30.42 1030 10 16.0934 0 0
12:35 pm 12:35 Cloudy 32 0 26 -3.5 78 78 N 15 24 30.42 1030 10 16.0934 0 0
12:50 pm 12:50 Cloudy 32 0 26 -3.5 78 78 NNW 17 28 30.42 1030 10 16.0934 0 0
1:15 pm 13:15 Cloudy 33 0.5 26 -3.1 77 77 NNW 14 22 30.42 1030 10 16.0934 0 0
1:35 pm 13:35 Cloudy 34 1.1 27 -3 74 74 N 16 26 30.42 1030 10 16.0934 0 0
1:55 pm 13:55 Cloudy 35 1.5 27 -2.9 73 73 NNW 12 19 30.42 1030 10 16.0934 0 0
2:20 pm 14:20 Cloudy 36 2.4 26 -3.1 67 67 N 10 17 30.42 1030 10 16.0934 0 0
2:35 pm 14:35 Mostly Cloudy 38 3.5 27 -2.7 64 64 N 15 24 30.39 1029 10 16.0934 0 0
2:55 pm 14:55 Partly Cloudy 40 4.2 27 -2.7 61 61 N 14 22 30.36 1028 10 16.0934 0 0
3:15 pm 15:15 Sunny 40 4.5 27 -2.9 59 59 N 16 26 30.36 1028 10 16.0934 0 0
3:35 pm 15:35 Sunny 40 4.7 27 -2.9 58 58 N 14 22 30.36 1028 10 16.0934 0 0
3:55 pm 15:55 Sunny 41 5.1 27 -3 56 56 N 5 7 30.36 1028 10 16.0934 0 0
4:15 pm 16:15 Sunny 42 5.5 27 -3 55 55 NNE 8 13 30.33 1027 10 16.0934 0 0
4:35 pm 16:35 Sunny 42 5.7 26 -3.2 53 53 N 12 19 30.33 1027 10 16.0934 0 0
4:55 pm 16:55 Sunny 43 6.2 26 -3.1 52 52 N 8 13 30.33 1027 10 16.0934 0 0
5:15 pm 17:15 Sunny 44 6.5 26 -3.3 50 50 N 13 20 30.33 1027 10 16.0934 0 0
5:35 pm 17:35 Sunny 44 6.6 26 -3.2 50 50 NNE 14 22 30.33 1027 10 16.0934 0 0
5:55 pm 17:55 Sunny 44 6.7 26 -3.6 48 48 NNE 7 11 30.33 1027 10 16.0934 0 0
6:15 pm 18:15 Sunny 44 6.5 25 -3.7 48 48 NNE 9 15 30.33 1027 10 16.0934 0 0
6:35 pm 18:35 Sunny 43 6 25 -3.7 50 50 NNE 14 22 30.33 1027 10 16.0934 0 0
6:55 pm 18:55 Sunny 41 5.2 25 -3.9 52 52 NNE 12 19 30.39 1029 10 16.0934 0 0
7:15 pm 19:15 Sunny 39 4.1 25 -4.1 56 56 NNE 12 19 30.39 1029 10 16.0934 0 0
7:35 pm 19:35 Sunny 36 2.3 24 -4.7 60 60 NNE 7 11 30.42 1030 10 16.0934 0 0
7:55 pm 19:55 Clear 32 0.1 22 -5.5 66 66 NNE 7 11 30.42 1030 10 16.0934 0 0
8:15 pm 20:15 Clear 31 -0.6 21 -6 67 67 NNE 5 7 30.48 1032 10 16.0934 0 0
8:35 pm 20:35 Clear 29 -1.5 20 -6.5 69 69 NE 5 7 30.48 1032 10 16.0934 0 0
8:55 pm 20:55 Clear 31 -0.7 22 -5.8 69 69 ENE 3 6 30.48 1032 10 16.0934 0 0
9:15 pm 21:15 Clear 29 -1.6 20 -6.4 70 70 ENE 5 7 30.48 1032 10 16.0934 0 0
9:35 pm 21:35 Clear 26 -3.4 19 -7.1 76 76 E 6 9 30.5 1033 10 16.0934 0 0
9:55 pm 21:55 Clear 25 -4.1 19 -7.1 80 80 Calm 30.5 1033 10 16.0934 0 0
10:15 pm 22:15 Clear 27 -3 20 -6.6 76 76 E 3 6 30.5 1033 10 16.0934 0 0
10:35 pm 22:35 Clear 26 -3.5 21 -6.3 81 81 E 3 6 30.53 1034 10 16.0934 0 0
10:55 pm 22:55 Clear 25 -3.8 21 -6.2 84 84 E 7 11 30.53 1034 10 16.0934 0 0
11:15 pm 23:15 Clear 25 -4.1 20 -6.4 84 84 E 6 9 30.53 1034 10 16.0934 0 0
11:35 pm 23:35 Clear 23 -5.2 19 -7 87 87 ENE 3 6 30.53 1034 10 16.0934 0 0
11:55 pm 23:55 Clear 22 -5.5 19 -7 89 89 ENE 3 6 30.53 1034 10 16.0934 0 0

Powered by AerisWeather